GFSMW_925_temp_270.txt.gz
Temp
24 25 27 28 29 26 25 24 24 24 21 20 19 19 19 18 18 19 19 20 21 21 21 20 21 20 20 20 20 19 19 18 18 16 17 18 18 19 20 22 21 20 21
23 24 27 26 26 27 26 25 24 23 22 21 20 20 20 19 19 18 19 21 21 21 20 21 21 20 20 20 19 19 17 17 17 17 16 17 18 20 22 21 20 21 20
23 24 22 24 24 24 25 25 25 25 23 23 20 20 21 20 19 19 19 20 19 20 20 20 21 21 20 20 21 20 19 17 18 18 17 16 16 16 21 21 21 21 20
22 23 22 23 24 25 24 25 25 25 24 22 21 20 21 20 20 19 18 18 21 22 19 20 21 20 20 20 20 19 19 18 17 17 17 18 18 17 18 20 20 20 19
21 22 22 22 23 23 25 24 24 24 24 22 22 20 21 21 21 20 20 20 20 21 18 20 20 19 19 19 19 18 18 18 17 17 17 17 16 16 17 17 18 18 19
21 22 22 19 19 20 21 22 21 22 24 22 21 20 20 20 21 21 21 20 20 19 20 20 20 19 18 18 18 18 18 18 18 18 17 17 17 17 16 17 17 17 17
20 21 21 18 17 17 18 20 21 20 21 21 21 20 20 20 21 22 21 20 20 20 18 18 18 18 17 17 17 17 16 16 16 16 17 17 17 16 16 16 16 16 17
20 20 19 19 16 17 17 18 19 19 20 20 19 19 20 20 21 21 19 18 17 16 17 18 17 16 15 15 14 14 14 14 14 14 14 13 14 13 13 14 14 15 15
18 18 17 17 15 15 15 16 16 16 18 18 18 18 19 18 17 16 15 15 14 14 15 16 15 15 14 14 13 13 11 11 11 10 10 10 10 10 10 11 11 13 14
17 17 15 15 15 14 14 15 15 14 14 14 15 15 14 14 14 14 13 12 12 14 14 13 13 13 13 11 11 10 8 7 6 5 7 6 6 7 8 9 9 10 11
13 16 15 15 14 15 14 13 13 13 13 12 11 11 11 11 11 10 10 11 11 11 11 11 11 10 10 9 9 6 4 4 4 5 4 3 4 4 5 5 6 6 7
13 14 14 14 14 13 13 13 12 12 12 12 13 11 10 9 9 9 9 9 9 9 8 8 8 8 6 5 4 3 3 3 3 3 2 2 3 3 3 3 4 4 5
13 13 13 14 14 13 13 12 11 11 11 12 11 10 9 9 8 8 8 8 7 7 7 7 6 5 4 3 3 2 2 2 3 2 2 1 1 2 2 3 3 3 3
13 13 13 14 14 13 12 11 11 9 12 12 11 10 9 8 7 7 7 7 6 6 5 4 3 2 2 2 2 2 2 2 2 2 2 1 1 1 1 2 2 2 2
12 12 12 13 13 12 12 10 10 9 8 8 8 7 6 6 7 6 5 5 5 4 3 3 2 1 1 1 2 2 2 2 2 2 2 1 1 0 0 0 0 1 1
11 11 11 12 12 12 11 10 9 8 8 6 6 5 5 5 4 4 4 3 3 3 2 2 1 -0 -1 -1 1 1 1 1 0 1 0 0 0 0 0 0 -0 -0 -0
10 10 10 11 12 12 11 9 8 7 7 6 5 5 5 4 3 3 3 2 2 2 1 1 -0 -1 -1 -1 -0 -1 -1 -1 -1 -1 -2 -1 -1 -1 -0 0 0 0 0
9 9 9 10 11 11 9 8 7 7 6 5 4 4 3 2 2 2 1 1 1 0 -0 -0 -1 -1 -1 -2 -2 -3 -2 -2 -2 -2 -2 -2 -1 -1 -0 -0 0 0 0
8 8 7 9 10 9 8 7 6 5 4 4 3 2 2 1 1 0 0 0 -0 -1 -1 -1 -1 -1 -2 -2 -3 -3 -3 -3 -3 -2 -2 -2 -1 -1 -1 -0 -0 -0 0
8 7 6 7 7 6 6 5 5 4 3 2 1 1 1 0 -0 -1 -1 -1 -1 -1 -1 -1 -2 -3 -3 -3 -4 -3 -3 -3 -3 -2 -2 -2 -1 -1 -1 -1 -1 -1 -1
7 6 6 5 5 5 4 4 3 2 1 1 0 -0 -1 -1 -1 -1 -1 -2 -2 -2 -3 -3 -4 -4 -4 -5 -5 -5 -5 -5 -4 -4 -4 -3 -2 -2 -2 -1 -1 -1 -1
6 5 4 4 4 3 2 2 1 0 -1 -1 -1 -2 -1 -2 -2 -2 -2 -3 -3 -4 -5 -5 -5 -6 -6 -6 -6 -6 -6 -6 -6 -5 -5 -5 -4 -3 -2 -2 -1 -1 -1
4 3 3 2 1 1 0 -0 -1 -1 -1 -2 -2 -2 -3 -3 -3 -3 -4 -5 -6 -6 -7 -7 -8 -8 -8 -8 -7 -7 -7 -7 -7 -7 -7 -6 -6 -4 -4 -4 -3 -2 -2
4 2 1 0 -1 -1 -1 -1 -1 -2 -2 -3 -3 -4 -4 -5 -5 -5 -6 -6 -7 -8 -8 -8 -9 -8 -8 -8 -8 -8 -8 -9 -8 -8 -8 -8 -8 -8 -7 -7 -6 -5 -4
1 1 -0 -1 -2 -2 -2 -2 -2 -2 -3 -4 -5 -5 -5 -6 -6 -6 -7 -7 -7 -8 -8 -10 -10 -9 -9 -8 -8 -8 -9 -9 -9 -9 -9 -9 -9 -8 -8 -7 -7 -7 -6
0 -1 -1 -2 -2 -3 -3 -3 -3 -3 -5 -5 -6 -6 -6 -7 -7 -8 -8 -8 -8 -8 -9 -9 -10 -10 -9 -9 -9 -9 -10 -10 -10 -11 -11 -10 -10 -9 -9 -8 -8 -8 -7

GFSMW_925_temp_273.txt.gz
Temp
27 26 25 25 24 26 25 24 23 23 21 20 19 19 19 19 18 18 18 18 18 19 20 20 21 20 18 18 18 17 17 18 16 17 18 18 18 19 19 19 18 18 18
25 24 24 23 22 22 22 24 24 23 22 21 20 21 20 20 19 19 17 17 18 19 18 19 18 18 18 17 17 17 18 18 17 19 18 19 20 21 19 20 21 21 20
23 23 23 22 22 22 21 21 23 24 23 21 21 20 21 20 19 19 18 17 16 18 18 21 24 22 20 17 16 17 17 19 17 18 18 18 20 21 22 21 21 20 20
22 22 22 22 21 20 19 21 21 22 23 21 22 20 21 21 21 20 19 17 16 19 19 21 23 23 19 19 17 17 17 17 18 17 17 18 19 20 22 22 19 19 19
21 21 21 21 20 18 17 19 21 21 21 22 21 20 21 21 22 20 18 18 17 19 20 21 19 20 17 17 17 18 17 18 17 17 17 17 17 17 17 18 20 19 19
20 20 19 19 18 17 17 17 19 21 21 21 20 21 20 21 19 19 19 18 18 17 18 17 17 18 17 18 18 18 18 17 17 17 17 17 17 19 17 17 18 18 18
18 19 18 18 17 16 16 16 17 19 20 20 20 20 20 20 20 20 19 18 18 18 17 17 17 17 17 17 17 17 16 16 16 15 15 15 15 14 15 15 16 17 17
17 17 18 17 16 15 15 14 16 17 18 18 18 18 19 19 19 19 19 16 13 11 12 15 15 15 15 15 15 15 14 13 13 12 12 11 11 10 11 12 13 14 16
16 16 17 16 16 15 14 13 13 14 15 15 15 15 16 16 15 14 12 11 12 12 12 7 10 11 12 12 13 10 9 10 8 8 7 8 7 7 8 8 9 11 13
16 16 16 15 15 15 14 12 12 12 12 13 12 12 11 11 10 10 9 8 8 11 16 11 8 9 9 9 10 7 7 7 6 5 6 5 5 5 5 5 6 8 8
15 15 15 15 15 14 14 12 11 11 11 11 11 13 12 11 9 8 7 6 6 10 10 9 8 7 6 6 6 6 6 6 5 4 5 4 4 4 4 4 4 4 5
15 15 15 14 14 14 14 12 11 10 10 10 9 9 9 10 10 8 5 6 5 8 8 7 5 4 4 4 4 5 4 5 3 3 3 3 4 4 3 4 3 3 3
14 14 14 14 13 13 14 12 11 11 12 9 9 9 8 8 6 6 6 6 5 4 4 4 3 3 3 3 3 3 3 3 2 2 2 2 3 2 3 3 3 3 3
13 14 13 13 12 12 13 12 10 9 9 8 8 7 6 5 6 5 4 4 3 3 2 2 2 1 1 1 2 3 3 3 2 2 2 2 1 1 1 1 1 2 2
13 13 12 13 12 11 12 11 10 9 8 7 6 5 5 5 4 4 3 2 2 1 1 1 0 0 -0 -0 1 1 1 1 1 1 0 0 0 0 0 0 0 0 1
12 12 12 12 11 11 11 11 9 8 7 5 5 4 4 4 3 3 3 2 2 1 1 0 -0 -1 -1 -0 -0 -1 -1 -1 -1 -1 -1 -1 -1 -0 -0 -0 -0 0 0
12 11 11 10 10 11 11 10 8 6 6 5 5 4 3 3 3 2 2 1 1 0 0 -0 -1 -2 -2 -3 -3 -2 -2 -2 -2 -1 -1 -1 -1 -1 -1 -1 -0 -0 0
11 11 10 9 9 9 9 8 7 6 5 4 4 3 2 2 1 1 0 0 -0 -1 -1 -1 -1 -2 -3 -3 -3 -3 -2 -2 -2 -1 -1 -1 -1 -1 -2 -1 -1 -0 -0
11 10 9 8 8 7 6 6 5 4 3 2 2 1 0 -0 -1 -1 -1 -1 -1 -2 -2 -2 -2 -3 -4 -4 -4 -3 -3 -2 -2 -2 -2 -2 -2 -2 -2 -2 -1 -1 -0
10 9 8 7 7 6 4 3 2 2 1 0 -0 -1 -1 -1 -2 -2 -2 -2 -2 -3 -3 -4 -4 -5 -5 -6 -5 -5 -4 -4 -4 -3 -3 -4 -5 -5 -4 -3 -2 -1 -1
9 8 7 5 5 4 3 2 0 -0 -1 -1 -1 -1 -2 -2 -2 -2 -3 -3 -3 -3 -4 -5 -5 -6 -6 -6 -6 -6 -5 -6 -5 -4 -5 -5 -6 -6 -6 -5 -3 -3 -3
8 6 5 4 3 2 1 -0 -1 -1 -1 -2 -2 -3 -3 -3 -4 -4 -5 -4 -4 -5 -5 -5 -6 -6 -7 -7 -7 -7 -7 -7 -6 -6 -6 -6 -7 -7 -7 -6 -7 -6 -4
7 4 4 2 1 0 -0 -1 -2 -2 -3 -3 -3 -4 -4 -5 -5 -5 -5 -6 -6 -6 -6 -6 -6 -6 -7 -7 -7 -8 -8 -8 -8 -8 -8 -8 -8 -8 -7 -7 -7 -6 -5
5 4 1 -0 -1 -2 -2 -2 -2 -3 -3 -4 -4 -5 -5 -6 -6 -6 -6 -7 -6 -7 -7 -7 -7 -7 -7 -8 -8 -8 -8 -8 -8 -9 -9 -9 -8 -8 -8 -7 -7 -7 -6
2 1 -1 -1 -2 -2 -3 -3 -3 -4 -4 -5 -5 -6 -6 -6 -7 -7 -7 -7 -8 -8 -8 -8 -8 -8 -8 -9 -9 -10 -9 -10 -11 -10 -9 -9 -9 -9 -8 -8 -8 -7 -7
-0 -1 -2 -2 -3 -4 -4 -4 -4 -4 -5 -5 -6 -6 -6 -7 -7 -7 -8 -9 -9 -9 -10 -10 -10 -9 -10 -10 -10 -10 -11 -11 -12 -10 -10 -10 -10 -10 -10 -9 -9 -9 -9

GFSMW_925_temp_276.txt.gz
Temp
29 27 26 26 25 25 26 25 26 27 25 24 23 23 23 22 22 22 22 22 21 20 19 19 19 19 19 20 20 20 20 20 20 19 21 22 22 21 22 22 22 22 21
27 27 26 25 24 24 23 23 24 24 25 26 24 23 23 23 23 23 22 21 21 19 19 19 19 20 20 21 18 18 19 18 19 19 20 21 23 24 23 23 22 22 21
25 25 25 23 23 23 21 21 21 22 23 24 25 24 23 23 23 23 23 22 20 19 18 18 18 18 19 19 19 19 17 18 18 18 19 20 22 26 25 24 23 22 21
24 24 24 23 22 21 20 19 19 20 21 23 25 24 23 23 24 24 24 23 20 19 17 17 17 19 18 18 19 19 17 17 18 17 17 18 21 24 25 25 24 22 21
23 23 23 22 21 20 19 18 17 19 20 20 22 23 23 22 23 24 24 23 20 18 18 17 18 18 17 17 18 17 17 17 17 17 18 18 19 19 20 21 24 23 22
22 22 21 21 20 20 19 18 15 16 19 20 20 22 22 22 23 24 23 21 19 19 19 18 18 19 18 18 18 18 17 17 17 17 17 18 19 20 20 18 20 19 20
21 21 21 20 20 19 19 17 14 14 15 19 20 21 21 22 22 23 22 21 20 17 18 18 17 17 17 17 17 17 17 17 16 16 15 15 14 14 15 16 17 19 20
21 21 21 19 19 19 18 17 13 13 13 14 16 18 20 21 18 17 16 15 14 13 14 14 14 14 13 12 14 15 12 13 13 13 12 12 11 11 11 12 12 14 17
21 20 20 19 18 18 18 17 12 12 12 12 12 13 14 14 11 11 10 10 10 10 13 14 16 15 13 14 9 10 10 11 11 11 11 11 11 8 8 9 10 11 13
20 20 20 18 18 17 17 18 13 11 11 11 10 10 10 10 10 9 8 8 8 8 9 9 10 10 12 11 9 9 9 10 10 10 10 10 9 9 8 8 7 8 9
19 19 18 17 17 17 17 18 14 11 10 10 10 9 8 7 8 8 7 7 7 6 6 6 7 7 7 7 8 8 8 8 8 8 8 8 8 9 8 8 7 6 6
18 18 18 17 16 16 16 16 14 11 11 10 9 8 8 8 8 8 7 6 6 6 5 5 5 5 5 6 6 6 6 6 6 7 7 7 8 8 7 8 7 5 6
17 18 17 17 16 15 15 15 15 10 10 9 8 7 7 6 6 5 5 5 4 3 3 4 4 4 5 5 5 6 6 6 6 6 5 5 5 5 5 6 6 6 5
17 17 17 16 15 14 14 14 14 11 9 8 6 5 5 5 4 5 3 3 2 2 1 1 2 2 3 4 5 5 5 5 3 3 2 2 2 2 2 4 3 3 3
16 16 16 16 14 14 14 12 12 10 8 7 6 5 4 4 3 3 2 1 1 1 2 1 0 0 -1 -0 2 3 2 2 2 1 2 1 0 0 0 1 1 2 2
16 16 15 15 14 13 12 11 10 8 6 5 5 4 4 3 3 2 2 1 1 0 0 -0 -0 -1 -1 -1 -1 1 1 1 1 1 1 1 1 -0 0 -0 -0 -0 1
15 15 15 14 13 12 10 8 7 6 5 4 4 3 2 2 1 0 -0 -1 -0 -1 -1 -2 -2 -3 -3 -2 -2 -0 1 1 1 2 1 2 2 -1 -1 -0 0 1 0
15 15 14 13 12 10 8 6 5 4 3 2 2 1 0 -1 -1 -1 -1 -1 -1 -1 -1 -2 -2 -3 -5 -4 -2 -1 1 1 1 1 1 0 0 -2 -4 -3 -0 1 1
14 14 13 12 11 8 7 4 3 2 1 -0 -1 -1 -1 -1 -2 -2 -2 -2 -3 -3 -4 -4 -3 -3 -5 -5 -4 -1 -0 -0 -0 -0 -1 -3 -3 -5 -5 -3 -1 -1 0
14 13 12 11 8 7 4 3 1 1 -0 -1 -1 -1 -2 -2 -2 -2 -3 -3 -3 -4 -3 -3 -3 -4 -4 -6 -6 -5 -2 -2 -1 -1 -1 -3 -5 -6 -6 -5 -3 -1 -1
13 11 10 8 5 4 3 1 -0 -1 -1 -1 -2 -2 -3 -3 -3 -3 -4 -4 -3 -3 -2 -3 -3 -3 -5 -5 -6 -7 -4 -5 -3 -2 -3 -3 -6 -7 -6 -6 -4 -5 -6
12 10 9 5 3 2 1 -1 -1 -2 -2 -2 -3 -3 -3 -4 -5 -5 -5 -5 -4 -4 -3 -3 -3 -4 -4 -6 -6 -7 -7 -7 -4 -4 -5 -5 -7 -7 -7 -6 -7 -6 -5
10 8 6 2 1 -0 -1 -2 -2 -3 -3 -3 -4 -5 -5 -5 -5 -5 -5 -5 -4 -4 -4 -4 -4 -4 -5 -5 -6 -7 -7 -7 -7 -7 -8 -7 -7 -7 -6 -6 -6 -6 -5
7 5 1 -1 -2 -2 -2 -3 -3 -3 -4 -4 -4 -5 -4 -4 -5 -6 -6 -6 -5 -5 -5 -5 -5 -5 -6 -7 -7 -7 -7 -7 -7 -8 -7 -7 -7 -7 -6 -6 -6 -6 -6
3 1 -1 -2 -3 -3 -3 -3 -3 -4 -4 -4 -5 -5 -5 -6 -6 -7 -7 -7 -9 -8 -7 -7 -7 -7 -7 -9 -9 -9 -9 -9 -9 -8 -6 -6 -7 -7 -7 -6 -6 -7 -7
0 -1 -2 -3 -3 -4 -4 -4 -4 -4 -4 -4 -5 -5 -5 -5 -5 -6 -8 -9 -9 -10 -10 -10 -10 -9 -10 -10 -10 -10 -10 -10 -9 -7 -7 -7 -7 -8 -8 -8 -8 -7 -7

GFSMW_925_temp_282.txt.gz
Temp
29 28 26 25 24 24 22 23 23 22 21 22 22 23 25 24 24 24 24 24 24 24 23 21 22 22 22 22 22 22 22 22 23 23 23 23 23 23 23 23 23 23 24
28 27 25 24 24 23 22 22 22 21 20 19 19 20 22 23 23 24 24 24 24 24 23 22 21 22 22 22 22 22 21 21 22 22 21 20 21 22 22 23 22 22 22
26 26 25 24 23 22 22 21 21 21 19 17 16 16 17 20 22 23 25 24 24 24 23 22 21 21 21 21 21 21 21 21 21 21 21 18 18 20 22 21 21 21 21
25 25 24 23 23 22 21 20 20 21 18 15 14 14 15 15 16 21 22 24 24 24 23 23 21 21 21 21 21 21 20 20 20 20 21 21 22 19 18 18 19 21 23
24 24 24 23 22 21 20 20 19 20 16 14 13 12 12 12 13 17 20 22 24 24 23 23 22 21 20 21 20 20 19 19 19 19 20 20 20 20 18 18 16 17 16
24 23 23 22 21 20 20 19 19 18 15 12 12 11 10 11 12 12 14 17 22 24 24 23 22 21 20 20 20 20 19 18 18 18 20 19 19 19 18 18 17 18 16
23 22 22 21 20 20 19 18 18 18 14 12 11 10 9 9 10 11 11 11 12 14 17 18 21 20 19 19 19 18 18 18 18 18 17 16 14 14 16 17 16 17 18
23 22 22 21 20 19 18 18 17 18 14 11 10 9 8 8 8 8 9 9 10 10 10 12 13 17 18 18 17 16 16 16 15 16 16 14 12 14 13 12 14 15 15
22 22 22 20 19 19 18 17 16 17 15 11 10 9 8 8 7 7 7 7 7 7 7 8 10 10 11 11 12 13 13 13 13 14 13 13 12 12 11 10 11 12 13
21 21 21 20 19 18 17 16 16 15 14 11 9 9 8 7 6 6 5 5 6 6 6 6 6 8 8 8 9 8 9 9 9 9 9 8 9 9 9 9 9 10 10
20 20 20 20 18 17 16 16 14 12 12 10 8 8 7 6 5 4 3 3 3 5 4 4 5 5 6 6 6 7 7 7 7 8 9 9 9 9 9 8 9 9 9
19 19 19 18 17 16 16 14 11 9 9 8 6 6 5 4 4 3 2 2 3 2 2 2 2 2 4 4 4 4 4 4 4 5 5 6 6 7 7 8 7 7 8
19 17 17 17 17 16 15 13 11 8 7 6 5 4 3 3 2 2 1 0 -0 0 3 2 1 0 1 2 3 3 3 3 3 2 2 2 3 3 4 5 5 4 5
17 16 16 16 16 15 14 12 9 8 6 5 4 3 3 2 1 0 -0 -1 -0 -0 -1 -1 0 -0 0 1 1 1 2 2 2 2 1 1 1 0 1 1 1 2 3
15 15 15 15 16 14 13 10 8 6 5 4 3 2 1 1 -0 -1 -2 -2 -3 -3 -3 -1 -1 -1 -1 -1 -0 -0 0 1 1 1 0 -0 -1 -1 -1 -1 -0 0 1
15 15 15 16 15 13 11 8 5 4 3 2 1 0 -0 -1 -1 -2 -2 -3 -4 -4 -4 -4 -3 -3 -3 -2 -1 -1 -1 -1 -1 -1 -0 -1 -2 -1 -3 -2 -0 0 1
15 15 16 16 12 10 8 5 4 2 1 0 -0 -1 -1 -1 -2 -2 -3 -3 -3 -4 -5 -5 -5 -4 -4 -3 -2 -1 -1 -1 -0 -1 -1 -1 -3 -3 -4 -4 -2 -1 0
13 14 15 11 9 8 5 3 2 1 -0 -1 -1 -1 -1 -2 -2 -3 -3 -4 -4 -4 -4 -5 -5 -5 -5 -2 -1 -0 1 1 1 -1 -2 -3 -5 -6 -5 -4 -3 -2 -1
6 10 12 10 7 5 3 2 -0 -1 -1 -2 -2 -2 -2 -3 -3 -3 -4 -4 -4 -4 -4 -4 -4 -5 -6 -5 -4 -3 -2 -0 -0 -2 -3 -5 -6 -5 -5 -5 -4 -4 -4
8 7 10 7 5 3 1 -1 -1 -2 -2 -2 -3 -3 -3 -3 -3 -3 -3 -2 -2 -2 -2 -4 -4 -5 -5 -5 -5 -5 -5 -4 -2 -3 -3 -5 -5 -5 -5 -5 -5 -5 -6
8 9 6 4 2 0 -1 -2 -2 -2 -3 -3 -3 -4 -4 -3 -3 -2 -2 -2 -2 -2 -2 -3 -4 -5 -6 -7 -6 -6 -6 -6 -4 -5 -5 -5 -5 -5 -5 -5 -6 -6 -5
8 6 3 1 0 -1 -2 -2 -2 -3 -4 -4 -4 -4 -4 -3 -3 -2 -3 -3 -3 -3 -3 -4 -5 -6 -7 -8 -8 -7 -6 -7 -6 -7 -6 -6 -5 -5 -5 -6 -6 -5 -5
5 2 1 -0 -1 -2 -2 -3 -3 -4 -4 -4 -4 -4 -4 -5 -5 -6 -6 -5 -5 -4 -5 -6 -6 -7 -8 -9 -9 -8 -7 -7 -7 -7 -6 -5 -6 -6 -6 -6 -6 -6 -6
3 1 -1 -2 -2 -3 -3 -4 -4 -4 -4 -3 -4 -5 -6 -6 -6 -7 -8 -8 -8 -7 -8 -7 -8 -8 -9 -9 -9 -8 -8 -8 -7 -6 -6 -6 -6 -6 -6 -7 -7 -7 -7
-0 -1 -2 -2 -3 -3 -4 -4 -4 -3 -3 -2 -3 -3 -4 -5 -7 -7 -7 -8 -9 -9 -9 -9 -9 -9 -9 -8 -8 -8 -7 -7 -7 -6 -6 -7 -7 -7 -7 -7 -7 -8 -8
-2 -2 -3 -3 -4 -4 -4 -3 -3 -2 -2 -2 -3 -3 -3 -3 -4 -6 -7 -8 -8 -8 -8 -9 -9 -8 -8 -8 -8 -8 -7 -7 -7 -7 -8 -8 -8 -8 -8 -8 -9 -9 -9